Regional Weather Roundup
Issued by NWS

Home | Current Version | Previous Version | Graphics & Text | Print | Product List | Glossary On
Versions: 1 2 3 4 5 6 7 8 9 10 11 12 13 14 15 16 17 18 19 20 21 22 23 24 25 26 27 28 29 30 31 32 33 34 35 36 37 38 39 40 41 42 43 44 45 46 47 48 49 50
000
ASUS45 KPSR 032210
RWRAZ

ARIZONA HOURLY REGIONAL WEATHER ROUNDUP
NATIONAL WEATHER SERVICE PHOENIX AZ
300 PM MST MON AUG 03 2015

NOTE: FAIR INDICATES FEW OR NO CLOUDS BELOW 12,000 FEET WITH NO
SIGNIFICANT WEATHER AND/OR OBSTRUCTIONS TO VISIBILITY.

AZZ001>003-036-032300-
NORTHWEST ARIZONA

CITY           SKY/WX    TMP DP  RH WIND       PRES   REMARKS
BULLHEAD CITY  SUNNY    109  41  10 S13G23    29.73F HX 103
KINGMAN        SUNNY     99  41  13 SW18G30   29.98F
$$

AZZ004>008-015-016-018-032300-
NORTH CENTRAL ARIZONA

CITY           SKY/WX    TMP DP  RH WIND       PRES   REMARKS
GRAND CANYON   MOSUNNY   85  38  18 W14G23    30.21F
WILLIAMS       MOSUNNY   84  37  18 S9G22     30.31F
PRESCOTT       PTSUNNY   91  45  20 SW8G18    30.11F
FLAGSTAFF      MOSUNNY   81  37  20 SW10      30.28F
PAYSON         MOSUNNY   91  43  18 SW7       30.13F
PAGE           MOSUNNY   95  50  21 VRB3      29.99F
$$

AZZ009>014-017-032300-
NORTHEAST ARIZONA

CITY           SKY/WX    TMP DP  RH WIND       PRES   REMARKS
WINSLOW        PTSUNNY   90  45  21 CALM      30.09F
SAINT JOHNS    SUNNY     87  40  19 W9        30.15F
SHOW LOW       PTSUNNY   81  41  24 CALM      30.23F
$$

AZZ023-032300-
GREATER PHOENIX AREA

CITY           SKY/WX    TMP DP  RH WIND       PRES   REMARKS
PHOENIX        MOSUNNY  108  47  13 VRB6      29.77F HX 104
BUCKEYE        SUNNY    108  45  12 S8G17     29.79F HX 103
GLENDALE       MOSUNNY  108  48  13 S10       29.80F HX 104
LUKE AFB       SUNNY    107  49  14 S10G17    29.77F HX 104
DEER VALLEY    SUNNY    105  48  14 SW9       29.80F HX 101
SCOTTSDALE     SUNNY    107  45  12 SW10G17   29.82F HX 102
MESA-FALCON    MOSUNNY  108  46  12 SW8       29.80F HX 103
MESA-GATEWAY   MOSUNNY  106  52  16 W7        29.83F HX 103
CHANDLER       MOSUNNY  106  48  14 W6        29.80F HX 102
$$

AZZ027-028-032300-
SOUTHWEST MARICOPA COUNTY AND PINAL COUNTY

CITY           SKY/WX    TMP DP  RH WIND       PRES   REMARKS
CASA GRANDE    SUNNY    106  50  15 W6        29.81F HX 103
GILA BEND      MOSUNNY  109  45  12 NW8G18    29.75F HX 104
$$

AZZ503-504-507>509-032300-
SOUTHEAST ARIZONA

CITY           SKY/WX    TMP DP  RH WIND       PRES   REMARKS
TUCSON         SUNNY    102  48  16 NW6       29.91F
DAVIS-MONTHAN  SUNNY    100  48  17 W8        29.90F
NOGALES        MOSUNNY   93  53  25 VRB5      30.01F
SIERRA VISTA   MOSUNNY   89  48  24 NW6       30.08F
DOUGLAS        MOSUNNY   95  46  18 MISG      30.02F
SAFFORD        MOSUNNY  102  41  12 W13G21    29.91F
$$

AZZ020-021-025-026-031-032300-
SOUTHWEST ARIZONA

CITY           SKY/WX    TMP DP  RH WIND       PRES   REMARKS
YUMA           MOSUNNY  110  53  15 S12       29.71F HX 108
$$

CAZ031-033-041-043-047-048-061-032300-
SOUTHERN CALIFORNIA

CITY           SKY/WX    TMP DP  RH WIND       PRES   REMARKS
DOWNTOWN L.A.  PTSUNNY   78  65  63 CALM      29.88F
L.A. AIRPORT   MOSUNNY   75  65  70 W13       29.89F
SAN DIEGO      MOSUNNY   77  63  61 NW12      29.91S
BURBANK        PTSUNNY   85  63  47 S10       29.87F
ONTARIO        PTSUNNY   93  57  29 W10       29.88F
RIVERSIDE      MOSUNNY   92  56  29 W8G18     29.86F
PALM SPRINGS   MOSUNNY  107  46  13 VRB7      29.75F HX 103
EL CENTRO NAS  MOSUNNY  110  47  12 E6        29.70F HX 106
IMPERIAL       SUNNY    110  47  12 E9        29.69F HX 106
BLYTHE         MOSUNNY  111  49  12 S16       29.72F HX 107
NEEDLES        MOSUNNY  112  37   8 SW13G23   29.75F HX 105
$$

NVZ020-UTZ003-032300-
SOUTHERN NEVADA-UTAH

CITY           SKY/WX    TMP DP  RH WIND       PRES   REMARKS
LAS VEGAS      MOSUNNY  106  33   8 S9G30     29.78F
SALT LAKE CITY LGT RAIN  65  58  78 CALM      30.14F
$$

NMZ009-TXZ055-032300-
NEW MEXICO-WEST TEXAS

CITY           SKY/WX    TMP DP  RH WIND       PRES   REMARKS
ALBUQUERQUE    MOSUNNY   89  46  22 NW16G22   30.10F
EL PASO        MOSUNNY   93  57  29 NW3       29.97F
$$


........................KEY........................
SKY/WX - SKY CONDITION/WEATHER
TMP    - TEMPERATURE IN FAHRENHEIT
DP     - DEW POINT IN FAHRENHEIT
RH     - RELATIVE HUMIDITY IN PERCENT
WIND   - DIRECTION AND SPEED IN MILES PER HOUR (MPH)
VRB    - VARIABLE WIND DIRECTION
PRES   - MEAN SEA LEVEL PRESSURE IN INCHES OF MERCURY
         F - FALLING PRESSURE   R - RISING PRESSURE
         S - STEADY PRESSURE
VSB    - VISIBILITY IN MILES
HX     - HEAT INDEX IN FAHRENHEIT
WCI    - WIND CHILL INDEX IN FAHRENHEIT
TC     - TEMPERATURE IN CELSIUS WHICH IS ALSO KNOWN AS
         TEMPERATURE IN CENTIGRADE
AFB    - AIR FORCE BASE
         LUKE AFB IS LUKE AIR FORCE BASE
         DAVIS-MONTHAN IS DAVIS-MONTHAN AIR FORCE BASE
NAS    - NAVAL AIR STATION
         EL CENTRO NAS IS EL CENTRO NAVAL AIR STATION
N/A    - NOT AVAILABLE




USA.gov is the U.S. government's official web portal to all federal, state and local government web resources and services.